Le nostre stazioni meteo in Italia

Pubblicità
Il mio iltempo24.it
San Pancrazio, Italia (16130): Temperatura & dewpoint: 24.05.2020 23:00:00 - 30.05.2020 23:00:00 (CEST)San Pancrazio, Italia (16130): velocità del vento: 24.05.2020 23:00:00 - 30.05.2020 23:00:00 (CEST)San Pancrazio, Italia (16130): direzione del vento: 24.05.2020 23:00:00 - 30.05.2020 23:00:00 (CEST)San Pancrazio, Italia (16130): precipitazioni: 24.05.2020 23:00:00 - 30.05.2020 23:00:00 (CEST)
Data & Tempo tt [°C] td [°C] ff [km/h] ff [kn] dd rr [mm]
30.05.2020 23:00:00 - - - - - -
30.05.2020 22:00:00 19,1 5,9 7 4 ESE 0,0
30.05.2020 21:00:00 19,5 6,9 10 5 ESE 0,0
30.05.2020 20:00:00 21,0 6,9 12 7 ESE 0,0
30.05.2020 19:00:00 22,0 7,8 14 8 ENE 0,0
30.05.2020 18:00:00 22,6 7,2 18 10 NE 0,0
30.05.2020 17:00:00 24,6 3,3 8 4 E 0,0
30.05.2020 16:00:00 23,6 3,0 6 4 NNO 0,0
30.05.2020 15:00:00 23,6 4,0 6 4 SE 0,0
30.05.2020 14:00:00 22,8 2,8 6 3 SSE 0,0
30.05.2020 13:00:00 22,6 6,4 5 3 S 0,0
30.05.2020 12:00:00 19,7 7,1 2 1 NO 0,0
30.05.2020 11:00:00 18,6 7,4 3 2 ONO 0,0
30.05.2020 10:00:00 17,6 7,3 3 2 O 0,0
30.05.2020 09:00:00 17,2 7,0 4 2 O 0,0
30.05.2020 08:00:00 15,0 7,3 9 5 O 0,0
30.05.2020 07:00:00 12,4 6,9 8 5 O 0,0
30.05.2020 06:00:00 10,8 6,0 8 4 O 0,0
30.05.2020 05:00:00 11,1 5,8 7 4 SO 0,0
30.05.2020 04:00:00 10,9 6,4 6 3 OSO 0,0
30.05.2020 03:00:00 11,4 6,5 9 5 O 0,0
30.05.2020 02:00:00 10,8 6,5 5 3 O 0,0
30.05.2020 01:00:00 11,0 7,5 5 3 O 0,0
30.05.2020 00:00:00 11,6 8,1 11 6 SSO 0,0
29.05.2020 23:00:00 12,2 7,9 2 1 SO 0,0
29.05.2020 22:00:00 13,6 8,4 2 1 SSE 0,0
29.05.2020 21:00:00 16,6 7,5 5 3 SE 0,0
29.05.2020 20:00:00 19,0 6,5 7 4 OSO 0,0
29.05.2020 19:00:00 20,0 5,6 4 2 NNE 0,0
29.05.2020 18:00:00 18,2 6,1 5 3 NNO 0,0
29.05.2020 17:00:00 16,5 4,8 10 5 N 0,2
29.05.2020 16:00:00 20,4 4,8 6 4 E 0,0
29.05.2020 15:00:00 20,8 5,6 10 6 SE 0,0
29.05.2020 14:00:00 20,0 5,6 11 6 ESE 0,0
29.05.2020 13:00:00 17,8 7,2 10 5 SSE 0,0
29.05.2020 12:00:00 15,4 5,9 12 7 ESE 0,0
29.05.2020 11:00:00 15,7 8,7 17 9 E 0,0
29.05.2020 10:00:00 14,5 10,1 8 4 SE 0,6
29.05.2020 09:00:00 15,0 9,4 11 6 E 0,0
29.05.2020 08:00:00 14,7 10,3 14 8 ENE 0,0
29.05.2020 07:00:00 13,6 9,8 13 7 ENE 0,0
29.05.2020 06:00:00 13,4 9,4 10 5 E 0,0
29.05.2020 05:00:00 13,6 9,8 15 8 E 0,0
29.05.2020 04:00:00 13,3 11,2 17 9 SE 3,6
29.05.2020 03:00:00 14,1 10,7 10 6 SE 0,8
29.05.2020 02:00:00 16,1 9,7 21 11 ESE 0,0
29.05.2020 01:00:00 15,9 8,4 16 9 E 0,0
29.05.2020 00:00:00 19,1 5,2 7 4 O 0,0
28.05.2020 23:00:00 19,8 5,8 16 9 O 0,0
28.05.2020 22:00:00 20,7 6,6 19 10 O 0,0
28.05.2020 21:00:00 21,6 7,8 12 6 O 0,0
28.05.2020 20:00:00 24,5 7,6 10 5 O 0,0
28.05.2020 19:00:00 25,3 6,5 7 4 O 0,0
28.05.2020 18:00:00 26,6 6,6 5 3 O 0,0
28.05.2020 17:00:00 26,3 5,3 5 3 S 0,0
28.05.2020 16:00:00 25,7 5,3 12 6 NNE 0,0
28.05.2020 15:00:00 25,4 4,5 8 4 NE 0,0
28.05.2020 14:00:00 24,8 4,0 10 6 N 0,0
28.05.2020 13:00:00 24,4 4,7 8 5 NNO 0,0
28.05.2020 12:00:00 23,4 5,3 9 5 N 0,0
28.05.2020 11:00:00 22,3 6,1 7 4 ONO 0,0
28.05.2020 10:00:00 19,9 5,9 9 5 NO 0,0
28.05.2020 09:00:00 18,0 6,8 6 3 ONO 0,0
28.05.2020 08:00:00 16,6 6,4 5 3 O 0,0
28.05.2020 07:00:00 13,3 6,4 9 5 O 0,0
28.05.2020 06:00:00 12,6 6,0 5 3 ONO 0,0
28.05.2020 05:00:00 13,1 5,7 8 4 SSO 0,0
28.05.2020 04:00:00 13,6 5,5 9 5 SO 0,0
28.05.2020 03:00:00 14,2 5,0 11 6 SO 0,0
28.05.2020 02:00:00 13,8 4,9 9 5 SSO 0,0
28.05.2020 01:00:00 13,9 5,3 10 5 SSO 0,0
28.05.2020 00:00:00 13,1 6,0 8 4 SO 0,0
27.05.2020 23:00:00 15,1 5,6 4 2 SSE 0,0
27.05.2020 22:00:00 18,0 3,5 3 1 SE 0,0
27.05.2020 21:00:00 20,0 2,4 4 2 ESE 0,0
27.05.2020 20:00:00 22,8 1,7 6 3 SE 0,0
27.05.2020 19:00:00 24,1 2,3 10 6 SE 0,0
27.05.2020 18:00:00 24,5 1,4 9 5 SSE 0,0
27.05.2020 17:00:00 25,6 1,0 8 4 NE 0,0
27.05.2020 16:00:00 25,0 1,8 9 5 E 0,0
27.05.2020 15:00:00 24,4 1,3 10 5 ENE 0,0
27.05.2020 14:00:00 24,2 1,8 10 5 E 0,0
27.05.2020 13:00:00 23,4 2,2 8 4 E 0,0
27.05.2020 12:00:00 23,5 2,9 10 6 SE 0,0
27.05.2020 11:00:00 22,6 3,7 7 4 SE 0,0
27.05.2020 10:00:00 21,3 3,5 11 6 ESE 0,0
27.05.2020 09:00:00 19,9 4,8 8 4 E 0,0
27.05.2020 08:00:00 17,9 6,7 1 1 S 0,0
27.05.2020 07:00:00 14,9 7,9 2 1 SE 0,0
27.05.2020 06:00:00 10,8 6,5 3 2 OSO 0,0
27.05.2020 05:00:00 12,4 6,4 - - - 0,0
27.05.2020 04:00:00 14,5 6,3 3 2 SSO 0,0
27.05.2020 03:00:00 16,4 4,7 3 2 ESE 0,0
27.05.2020 02:00:00 17,2 3,5 8 5 E 0,0
27.05.2020 01:00:00 18,4 2,7 10 5 E 0,0
27.05.2020 00:00:00 18,7 2,1 5 3 SE 0,0
26.05.2020 23:00:00 19,4 1,8 11 6 E 0,0
26.05.2020 22:00:00 19,6 2,5 11 6 E 0,0
26.05.2020 21:00:00 20,5 3,2 13 7 E 0,0
26.05.2020 20:00:00 22,3 3,4 18 10 E 0,0
26.05.2020 19:00:00 23,1 3,1 16 8 E 0,0
26.05.2020 18:00:00 24,4 2,5 16 9 E 0,0
26.05.2020 17:00:00 25,7 3,6 11 6 ESE 0,0
26.05.2020 16:00:00 25,2 3,2 10 6 E 0,0
26.05.2020 15:00:00 25,1 3,7 8 5 ENE 0,0
26.05.2020 14:00:00 24,6 5,4 11 6 SE 0,0
26.05.2020 13:00:00 24,1 6,4 12 7 E 0,0
26.05.2020 12:00:00 23,4 6,6 11 6 E 0,0
26.05.2020 11:00:00 22,1 9,9 9 5 E 0,0
26.05.2020 10:00:00 20,2 10,9 9 5 ESE 0,0
26.05.2020 09:00:00 18,9 11,2 8 5 ENE 0,0
26.05.2020 08:00:00 17,0 10,6 8 4 ESE 0,0
26.05.2020 07:00:00 14,8 9,8 1 1 SSE 0,0
26.05.2020 06:00:00 14,7 10,1 6 3 E 0,0
26.05.2020 05:00:00 15,2 10,8 7 4 ENE 0,0
26.05.2020 04:00:00 16,0 10,3 7 4 E 0,0
26.05.2020 03:00:00 14,1 7,8 4 2 S 0,0
26.05.2020 02:00:00 16,4 7,6 4 2 SO 0,0
26.05.2020 01:00:00 17,0 7,6 5 3 SO 0,0
26.05.2020 00:00:00 17,3 7,9 10 5 O 0,0
25.05.2020 23:00:00 15,9 9,1 6 3 O 0,0
25.05.2020 22:00:00 16,9 8,6 4 2 S 0,0
25.05.2020 21:00:00 21,7 5,6 - - - 0,0
25.05.2020 20:00:00 25,5 4,0 5 3 N 0,0
25.05.2020 19:00:00 26,4 3,6 5 3 ONO 0,0
25.05.2020 18:00:00 26,9 2,7 4 2 O 0,0
25.05.2020 17:00:00 26,9 3,4 3 2 E 0,0
25.05.2020 16:00:00 27,1 2,2 5 3 NO 0,0
25.05.2020 15:00:00 26,2 2,8 10 5 N 0,0
25.05.2020 14:00:00 25,8 4,3 4 2 O 0,0
25.05.2020 13:00:00 26,2 4,6 5 3 S 0,0
25.05.2020 12:00:00 24,7 5,0 5 3 SE 0,0
25.05.2020 11:00:00 22,7 8,0 5 3 NE 0,0
25.05.2020 10:00:00 20,9 9,5 3 2 NNE 0,0
25.05.2020 09:00:00 19,6 10,6 3 2 SE 0,0
25.05.2020 08:00:00 16,2 10,3 5 3 SSO 0,0
25.05.2020 07:00:00 13,4 9,6 2 1 SSO 0,0
25.05.2020 06:00:00 10,7 8,1 3 2 NO 0,0
25.05.2020 05:00:00 11,8 8,1 2 1 NO 0,0
25.05.2020 04:00:00 11,7 8,9 1 1 NO 0,0
25.05.2020 03:00:00 12,2 8,9 3 1 NNE 0,0
25.05.2020 02:00:00 14,1 9,5 2 1 ESE 0,0
25.05.2020 01:00:00 14,5 8,9 4 2 SSE 0,0
25.05.2020 00:00:00 16,3 6,1 4 2 SSE 0,0
24.05.2020 23:00:00 18,1 5,3 7 4 SE 0,0

tt = Temperatura
td = dewpoint
ff = velocità del vento
dd = direzione del vento
rr = precipitazioni

Stazioni seguenti

WeatherPro
AMSI
MeteoEarth